This is the latest recevied weather packets stored in our database for station/object KF0JHJ. If no packets are shown the sender has not sent any weather packets the latest 10 day(s).
| Time | Temp. | Humidity | Pressure | Rain* | Wind** | Luminosity | Snow |
|---|---|---|---|---|---|---|---|
| 1778117869 | 6.11° C | 55% | 1012.4 hPa | - | - | 0 W/m² | - |
| 1778117567 | 6.11° C | 55% | 1012.7 hPa | - | - | 0 W/m² | - |
| 1778117264 | 6.11° C | 54% | 1012.7 hPa | - | - | 0 W/m² | - |
| 1778116964 | 6.11° C | 54% | 1012.5 hPa | - | - | 0 W/m² | - |
| 1778116663 | 6.11° C | 54% | 1012.4 hPa | - | - | 0 W/m² | - |
| 1778116359 | 6.67° C | 53% | 1012.7 hPa | - | - | 2 W/m² | - |
| 1778116058 | 6.67° C | 53% | 1012.6 hPa | - | - | 5 W/m² | - |
| 1778115755 | 6.67° C | 53% | 1012.7 hPa | - | - | 7 W/m² | - |
| 1778115452 | 6.67° C | 53% | 1012.6 hPa | - | - | 9 W/m² | - |
| 1778115149 | 6.67° C | 53% | 1012.8 hPa | - | - | 11 W/m² | - |
| 1778114845 | 6.67° C | 53% | 1012.7 hPa | - | - | 13 W/m² | - |
| 1778114543 | 6.67° C | 52% | 1012.7 hPa | - | - | 15 W/m² | - |
| 1778114239 | 6.67° C | 53% | 1013.2 hPa | - | - | 18 W/m² | - |
| 1778113934 | 6.67° C | 52% | 1013 hPa | - | - | 24 W/m² | - |
| 1778113630 | 6.67° C | 52% | 1012.7 hPa | - | - | 28 W/m² | - |
| 1778113327 | 6.67° C | 51% | 1013.1 hPa | - | - | 27 W/m² | - |
| 1778113023 | 7.22° C | 51% | 1013 hPa | - | - | 23 W/m² | - |
| 1778112721 | 7.22° C | 50% | 1013.2 hPa | - | - | 29 W/m² | - |
| 1778112417 | 7.78° C | 50% | 1012.8 hPa | - | - | 33 W/m² | - |
| 1778112112 | 7.78° C | 49% | 1013.3 hPa | - | - | 46 W/m² | - |
| 1778111810 | 7.78° C | 50% | 1012.8 hPa | - | - | 55 W/m² | - |
| 1778111505 | 7.78° C | 50% | 1013 hPa | - | - | 34 W/m² | - |
| 1778111203 | 7.78° C | 50% | 1013 hPa | - | - | 54 W/m² | - |
| 1778110900 | 7.78° C | 50% | 1013 hPa | - | - | 61 W/m² | - |
| 1778110597 | 7.78° C | 51% | 1013.2 hPa | - | - | 67 W/m² | - |
* Rain since midnight (hover to see other rain measurements)
** Current wind speed in m/s (hover to see current wind gust speed)